SCP
0 0 0 0 0 0 0 0 0 0 0 0 0 0 0 0 0 0 0 0 0 0 0 0 0 0 0 0 0 0 0 0 0 0 0 0 0 0 0 0 0 0 0
0 0 0 0 0 0 0 0 0 0 0 0 0 0 0 0 0 0 0 0 0 0 0 0 0 0 0 0 0 0 0 0 0 0 0 0 0 0 0 0 0 0 0
0 0 0 0 0 0 0 0 0 0 0 0 0 0 0 0 0 0 0 0 0 0 0 0 0 0 0 0 -0 -0 0 0 0 0 0 0 0 0 0 0 0 0 0
0 0 0 0 0 0 0 0 0 0 0 0 0 0 0 0 0 0 0 0 0 0 0 0 0 0 0 0 -0 0 0 0 0 0 0 0 0 0 0 0 0 0 0
0 0 0 0 0 0 0 0 0 0 0 0 0 0 0 0 0 0 0 0 0 0 0 0 0 0 0 0 0 0 0 0 0 0 0 0 0 0 0 0 0 0 0
0 0 0 0 0 0 0 0 0 0 0 0 0 0 0 0 0 0 0 0 0 0 0 0 0 0 0 0 0 0 0 0 0 0 0 0 0 0 0 0 0 0 0
0 0 0 0 0 0 0 0 0 0 0 0 0 0 0 0 0 0 0 0 0 0 0 0 0 0 0 0 0 0 0 0 0 0 0 0 0 0 0 0 0 0 0
0 0 0 0 0 0 0 0 0 0 0 0 0 0 -0 0 0 0 0 0 0 0 0 0 0 0 0 0 0 0 0 0 0 0 0 0 0 0 0 0 0 0 0
0 0 0 0 0 0 0 0 0 0 0 0 0 0 0 0 -0 0 0 0 0 0 0 0 0 0 0 0 0 0 0 0 0 0 0 0 0 0 0 0 0 0 0
0 0 0 0 0 0 0 0 0 0 0 0 0 0 0 0 0 -0 0 0 0 0 0 0 0 0 0 0 0 0 0 0 0 0 0 0 0 0 0 0 0 0 0
0 0 0 0 0 0 0 0 0 0 0 0 0 0 0 0 0 0 0 -0 0 0 0 0 0 0 0 0 0 0 0 0 0 0 0 0 0 0 0 0 0 0 0
0 0 0 0 0 0 0 0 0 0 0 0 0 0 0 0 0 0 0 -0 -0 -0 -0 0 0 0 0 0 0 0 0 0 0 0 0 0 0 0 0 0 0 0 0
0 0 0 0 0 0 0 0 0 0 0 0 0 0 0 0 0 0 0 0 -0 -0 -0 0 0 0 0 0 0 0 0 0 0 0 0 0 0 0 0 0 0 0 0
0 0 0 0 0 0 0 0 0 0 0 0 0 0 0 0 0 0 0 0 0 0 -0 -0 0 0 0 0 0 0 0 0 0 0 0 0 0 0 0 0 0 0 0
0 0 0 0 0 0 0 0 -0 0 0 0 0 0 0 0 0 0 0 0 -0 0 0 -0 -0 0 0 0 0 0 0 0 0 0 0 0 0 0 0 0 0 0 0
0 0 0 0 0 0 -0 -0 -0 -0 -0 -0 -0 0 0 0 0 0 0 0 0 0 0 0 -0 -0 0 0 0 0 0 0 0 0 0 0 0 0 0 0 0 0 0
0 0 0 0 0 0 0 -0 -0 -0 -0 -0 -0 -0 0 0 0 0 0 0 0 0 0 0 0 0 0 0 0 0 0 0 0 0 0 0 0 0 0 0 0 0 0
0 0 0 0 0 -0 -0 -0 -0 -0 -0 -0 -0 -0 -0 -0 0 0 0 0 0 0 0 0 0 0 0 -0 0 0 0 0 0 0 0 0 0 0 0 0 0 0 0
0 0 0 0 -0 -0 -0 -0 -0 -0 -0 -0 -0 0 0 0 -0 -0 -0 0 0 0 0 0 0 0 0 0 0 0 0 0 0 0 0 0 0 0 0 0 0 0 0
0 0 0 -0 -0 -0 -0 -0 -0 -0 -0 -0 0 0 0 0 0 0 0 -0 0 0 0 0 0 0 0 0 0 0 0 0 0 0 0 0 0 0 0 0 0 0 0
0 0 0 0 -0 -0 -0 0 0 0 0 0 0 0 0 0 0 0 0 0 0 0 0 0 0 0 0 0 0 0 0 -0 0 0 0 0 0 0 0 0 0 0 0
0 0 0 0 0 0 0 0 0 0 0 0 0 0 -0 -0 -0 0 0 0 0 0 0 0 0 0 0 0 0 0 0 0 -0 -0 -0 0 0 0 0 0 0 0 0
0 0 0 0 0 0 0 0 0 0 0 0 0 0 0 0 0 0 0 0 0 0 0 0 0 0 0 0 0 0 0 0 0 0 0 -0 0 0 0 0 0 0 0
0 0 0 0 0 0 0 0 0 0 0 0 0 0 0 0 0 0 0 0 0 0 0 0 0 0 0 0 0 0 0 0 0 0 0 0 0 0 0 0 0 0 0
0 0 0 0 0 0 0 0 0 0 0 0 0 0 0 0 0 0 0 0 0 0 0 0 0 0 0 0 0 0 0 0 0 0 0 0 0 0 0 0 0 0 0
0 0 0 0 0 0 0 0 0 0 0 0 0 0 0 0 0 0 0 0 0 0 0 0 0 0 0 0 0 0 0 0 0 0 0 0 0 0 0 0 0 0 0
Wind_Speed_500mb
36 38 35 39 40 41 41 43 37 32 30 31 32 34 34 32 30 27 26 24 23 21 21 22 22 21 22 23 24 26 29 32 28 32 32 28 28 32 35 37 29 33 34
37 39 41 39 35 42 44 43 43 39 33 35 34 36 38 37 36 34 32 30 27 26 25 24 24 26 27 27 28 27 18 26 25 27 22 22 19 15 20 21 24 29 31
22 26 32 36 38 40 42 43 42 42 39 37 38 40 41 42 41 40 39 37 36 33 31 30 28 28 27 27 26 19 24 27 35 34 29 26 25 24 20 25 33 37 36
19 23 29 31 34 39 41 42 45 37 44 39 38 40 45 48 47 45 44 43 42 40 37 35 34 32 31 29 26 19 27 31 37 34 27 22 21 24 23 33 26 27 26
24 26 24 28 30 33 36 40 44 44 40 41 41 43 45 46 49 50 50 50 49 46 42 40 40 38 36 35 30 25 34 34 31 28 32 23 22 25 26 31 28 28 28
19 20 25 27 24 26 24 32 33 39 41 34 44 47 47 48 48 49 51 54 56 54 51 47 46 44 41 38 35 33 32 38 38 38 43 26 28 28 31 30 28 26 24
19 24 26 26 24 21 26 23 24 22 26 31 38 44 50 52 54 52 50 52 53 55 58 57 54 51 47 44 43 40 41 31 41 46 47 36 30 29 30 29 28 26 24
16 16 19 26 29 29 31 33 32 35 34 31 36 42 37 45 44 21 26 26 33 46 56 61 61 57 55 52 50 49 49 45 37 50 45 44 33 28 29 31 31 31 28
20 18 16 19 25 31 34 36 37 37 36 34 33 27 16 12 45 52 50 50 49 41 27 37 48 59 60 58 57 56 54 53 50 46 48 52 43 32 32 33 32 32 30
22 20 17 16 16 18 23 29 32 36 41 44 44 38 34 38 31 43 48 60 61 62 59 55 42 38 38 47 58 60 59 58 59 59 60 56 60 47 38 36 36 36 34
24 25 25 25 23 23 20 19 20 23 29 35 37 39 45 45 46 50 67 58 68 66 67 67 64 63 61 56 51 48 57 62 63 63 63 64 73 70 50 42 39 38 38
25 27 29 32 32 31 32 32 32 30 26 24 29 35 37 37 43 50 65 80 82 88 77 74 75 74 71 67 63 60 56 56 62 65 66 68 77 73 61 55 47 42 41
28 30 31 32 34 34 33 34 35 34 34 34 33 31 32 38 45 50 56 71 83 84 88 86 76 75 73 73 71 66 64 61 60 64 68 69 76 76 70 64 56 50 46
32 33 33 34 35 37 39 41 42 43 42 40 40 39 40 36 36 38 46 54 76 84 80 72 74 71 69 70 71 71 70 61 56 58 65 71 74 76 72 68 64 57 54
31 35 38 41 42 44 47 50 52 55 56 56 56 55 54 49 48 46 44 41 45 60 87 64 63 71 67 64 65 69 75 75 69 61 63 71 76 79 76 71 67 64 60
28 31 35 40 45 51 58 64 68 69 71 71 70 70 68 65 64 58 56 53 49 52 69 83 82 77 72 72 67 69 72 74 77 71 65 68 77 81 80 76 72 69 65
36 39 42 46 51 58 65 72 77 79 81 84 84 82 78 73 73 71 68 66 65 63 75 87 85 82 79 72 66 65 69 73 78 82 77 70 73 81 84 81 77 75 72
45 48 53 59 66 72 77 81 85 86 87 87 84 83 87 85 81 78 76 76 76 73 77 88 88 89 88 83 75 66 65 68 75 78 82 86 77 74 80 83 81 80 79
50 54 59 66 73 79 85 88 89 88 88 87 86 87 87 86 90 90 85 82 81 81 82 85 95 90 93 88 87 81 73 69 69 74 79 83 93 89 83 85 85 83 81
55 59 65 70 76 82 83 84 86 88 89 91 92 92 89 88 89 89 88 85 81 80 81 85 90 93 91 93 92 90 91 82 75 67 69 80 85 93 97 94 92 90 85
59 65 68 73 78 80 80 81 85 88 92 94 94 93 91 86 83 79 71 81 76 78 79 67 68 68 68 74 84 86 88 86 87 78 73 73 81 88 97 101 102 98 93
65 68 72 77 81 80 80 82 86 88 91 93 93 91 87 83 80 62 62 64 65 70 75 74 73 72 76 62 58 67 80 82 89 77 61 70 62 81 93 100 103 104 100
70 70 74 77 80 81 81 84 87 87 89 88 84 81 78 70 70 72 68 60 62 66 66 72 81 87 80 72 66 70 71 73 90 87 81 92 78 81 75 85 96 101 101
69 72 76 78 80 79 80 84 85 83 82 79 76 73 72 70 64 57 60 62 60 59 58 61 69 84 88 90 83 87 87 82 80 83 84 95 84 94 79 79 82 83 96
68 72 75 78 79 78 78 79 78 77 76 77 73 66 62 66 58 52 57 65 69 71 69 65 68 69 68 68 68 76 87 78 88 92 81 89 101 92 89 86 82 83 89
69 72 75 75 75 76 74 73 69 67 70 72 68 69 70 57 55 56 62 68 75 76 73 68 65 66 66 71 66 71 77 84 93 88 77 82 89 85 80 94 90 84 83
Wind_Direction_500mb
267 266 278 281 282 283 287 295 300 299 291 285 277 273 272 272 272 273 275 279 285 291 296 303 308 308 308 306 300 297 292 289 294 289 284 272 253 246 243 246 239 236 232
263 270 270 271 288 286 286 293 296 295 293 290 283 278 276 277 277 278 278 279 280 285 290 294 301 308 312 312 311 306 293 292 296 303 305 288 260 248 241 239 239 234 233
271 271 269 276 284 284 285 290 294 294 295 297 294 286 278 274 273 274 276 278 280 281 284 288 293 296 301 304 308 275 278 280 302 303 303 290 263 248 239 250 248 250 243
262 265 274 281 281 283 285 285 287 293 288 294 299 298 292 284 278 274 270 272 274 276 280 283 287 290 292 292 286 265 264 271 280 296 302 288 262 255 252 262 262 254 244
262 268 280 277 278 277 280 282 281 273 275 281 290 294 295 290 285 281 277 272 269 269 270 272 276 279 284 288 282 260 258 277 279 275 295 279 256 258 259 270 274 266 256
288 282 276 280 285 294 291 281 283 272 269 281 284 284 291 293 289 285 282 280 278 275 272 268 268 272 275 277 277 268 252 260 275 275 291 283 264 259 267 268 269 268 260
309 313 311 294 294 307 304 316 302 306 308 305 303 298 284 284 291 290 286 282 278 277 275 274 272 271 270 272 274 267 252 264 265 269 278 280 274 273 271 259 265 266 263
305 288 293 308 314 312 307 303 310 307 306 304 307 311 312 295 303 301 300 293 291 284 273 270 271 272 272 271 269 267 263 258 253 271 270 274 274 274 268 265 261 257 259
8 353 331 302 294 298 302 308 309 312 311 305 305 306 316 296 300 287 277 283 291 296 307 296 282 275 273 272 270 268 266 262 251 242 263 265 270 277 276 276 268 260 253
36 29 15 359 340 324 309 302 300 303 308 308 300 296 293 297 304 305 292 286 283 285 283 288 290 290 289 279 274 271 268 265 259 250 247 253 262 275 279 279 273 264 256
31 32 31 30 27 23 9 345 328 316 305 296 302 303 297 296 296 297 302 299 290 281 279 279 279 278 279 280 279 281 276 271 265 259 252 248 257 266 272 276 276 268 260
22 20 16 13 13 10 8 5 3 356 349 323 305 300 301 302 297 296 297 298 298 294 287 283 282 279 276 274 273 274 278 278 269 264 257 250 252 261 266 270 272 268 260
14 14 10 6 3 3 360 355 351 349 346 342 339 329 315 304 297 291 290 293 296 295 293 289 284 284 283 278 271 269 270 275 274 266 260 255 253 258 262 264 265 266 258
6 5 2 359 354 349 345 342 338 335 333 329 325 321 317 315 311 308 298 296 296 294 296 296 295 290 285 282 279 271 263 268 274 272 265 259 255 256 259 259 261 262 258
344 343 341 341 340 339 337 332 329 326 322 319 316 313 311 310 305 303 301 300 297 295 300 300 296 298 295 289 284 280 274 267 266 270 266 262 260 259 260 259 259 259 257
335 332 331 330 331 331 329 327 325 322 318 315 312 308 305 303 299 297 295 293 289 287 284 293 297 298 296 290 285 279 275 273 268 264 268 263 261 261 261 261 259 258 255
333 331 331 331 330 328 325 323 320 318 314 312 311 308 304 301 297 294 291 288 285 283 283 287 289 293 293 295 294 287 278 271 268 267 263 265 265 261 261 261 257 256 254
326 326 326 327 327 326 324 322 319 317 315 314 311 308 307 306 301 296 292 288 286 283 282 285 284 286 287 289 292 289 287 280 270 264 264 261 260 264 263 261 259 255 253
320 321 323 324 323 323 322 320 319 318 316 314 311 308 306 303 301 301 298 293 288 286 284 284 284 282 282 283 285 286 286 282 280 274 264 259 258 257 260 261 259 255 252
315 317 319 320 320 320 320 319 318 316 314 312 310 307 303 299 297 295 295 296 293 290 286 285 285 285 283 281 281 283 284 285 283 277 271 265 259 256 256 257 260 259 254
312 315 317 317 319 320 320 318 316 314 313 310 308 305 303 300 294 289 286 285 287 288 288 286 283 284 283 284 281 284 281 284 284 281 275 263 259 256 252 253 255 256 255
311 314 316 317 319 319 319 318 316 315 312 309 308 308 307 306 303 296 287 279 275 278 280 282 282 279 279 276 279 282 282 282 284 283 287 277 267 262 258 253 252 254 257
312 313 315 317 318 319 319 318 317 314 311 311 311 310 307 304 303 301 298 291 282 273 270 273 273 272 275 274 275 274 274 276 275 274 278 278 272 266 263 260 254 252 253
309 313 316 318 317 319 320 319 317 314 311 312 314 311 309 311 311 304 302 301 298 298 294 288 280 277 276 278 276 269 270 265 270 272 268 268 268 271 266 262 259 257 252
309 313 316 317 317 321 322 320 318 315 313 315 316 317 318 314 310 302 299 296 294 291 290 283 277 276 277 275 272 275 272 271 272 266 258 259 262 265 268 268 260 256 252
309 312 315 316 319 321 322 320 318 315 315 317 323 322 319 306 302 298 294 293 293 295 299 301 298 296 296 291 288 273 267 271 268 272 259 252 256 257 262 265 264 258 253
Wind_Speed_850mb
36 38 35 39 40 41 41 43 37 32 30 31 32 34 34 32 30 27 26 24 23 21 21 22 22 21 22 23 24 26 29 32 28 32 32 28 28 32 35 37 29 33 34
37 39 41 39 35 42 44 43 43 39 33 35 34 36 38 37 36 34 32 30 27 26 25 24 24 26 27 27 28 27 18 26 25 27 22 22 19 15 20 21 24 29 31
22 26 32 36 38 40 42 43 42 42 39 37 38 40 41 42 41 40 39 37 36 33 31 30 28 28 27 27 26 19 24 27 35 34 29 26 25 24 20 25 33 37 36
19 23 29 31 34 39 41 42 45 37 44 39 38 40 45 48 47 45 44 43 42 40 37 35 34 32 31 29 26 19 27 31 37 34 27 22 21 24 23 33 26 27 26
24 26 24 28 30 33 36 40 44 44 40 41 41 43 45 46 49 50 50 50 49 46 42 40 40 38 36 35 30 25 34 34 31 28 32 23 22 25 26 31 28 28 28
19 20 25 27 24 26 24 32 33 39 41 34 44 47 47 48 48 49 51 54 56 54 51 47 46 44 41 38 35 33 32 38 38 38 43 26 28 28 31 30 28 26 24
19 24 26 26 24 21 26 23 24 22 26 31 38 44 50 52 54 52 50 52 53 55 58 57 54 51 47 44 43 40 41 31 41 46 47 36 30 29 30 29 28 26 24
16 16 19 26 29 29 31 33 32 35 34 31 36 42 37 45 44 21 26 26 33 46 56 61 61 57 55 52 50 49 49 45 37 50 45 44 33 28 29 31 31 31 28
20 18 16 19 25 31 34 36 37 37 36 34 33 27 16 12 45 52 50 50 49 41 27 37 48 59 60 58 57 56 54 53 50 46 48 52 43 32 32 33 32 32 30
22 20 17 16 16 18 23 29 32 36 41 44 44 38 34 38 31 43 48 60 61 62 59 55 42 38 38 47 58 60 59 58 59 59 60 56 60 47 38 36 36 36 34
24 25 25 25 23 23 20 19 20 23 29 35 37 39 45 45 46 50 67 58 68 66 67 67 64 63 61 56 51 48 57 62 63 63 63 64 73 70 50 42 39 38 38
25 27 29 32 32 31 32 32 32 30 26 24 29 35 37 37 43 50 65 80 82 88 77 74 75 74 71 67 63 60 56 56 62 65 66 68 77 73 61 55 47 42 41
28 30 31 32 34 34 33 34 35 34 34 34 33 31 32 38 45 50 56 71 83 84 88 86 76 75 73 73 71 66 64 61 60 64 68 69 76 76 70 64 56 50 46
32 33 33 34 35 37 39 41 42 43 42 40 40 39 40 36 36 38 46 54 76 84 80 72 74 71 69 70 71 71 70 61 56 58 65 71 74 76 72 68 64 57 54
31 35 38 41 42 44 47 50 52 55 56 56 56 55 54 49 48 46 44 41 45 60 87 64 63 71 67 64 65 69 75 75 69 61 63 71 76 79 76 71 67 64 60
28 31 35 40 45 51 58 64 68 69 71 71 70 70 68 65 64 58 56 53 49 52 69 83 82 77 72 72 67 69 72 74 77 71 65 68 77 81 80 76 72 69 65
36 39 42 46 51 58 65 72 77 79 81 84 84 82 78 73 73 71 68 66 65 63 75 87 85 82 79 72 66 65 69 73 78 82 77 70 73 81 84 81 77 75 72
45 48 53 59 66 72 77 81 85 86 87 87 84 83 87 85 81 78 76 76 76 73 77 88 88 89 88 83 75 66 65 68 75 78 82 86 77 74 80 83 81 80 79
50 54 59 66 73 79 85 88 89 88 88 87 86 87 87 86 90 90 85 82 81 81 82 85 95 90 93 88 87 81 73 69 69 74 79 83 93 89 83 85 85 83 81
55 59 65 70 76 82 83 84 86 88 89 91 92 92 89 88 89 89 88 85 81 80 81 85 90 93 91 93 92 90 91 82 75 67 69 80 85 93 97 94 92 90 85
59 65 68 73 78 80 80 81 85 88 92 94 94 93 91 86 83 79 71 81 76 78 79 67 68 68 68 74 84 86 88 86 87 78 73 73 81 88 97 101 102 98 93
65 68 72 77 81 80 80 82 86 88 91 93 93 91 87 83 80 62 62 64 65 70 75 74 73 72 76 62 58 67 80 82 89 77 61 70 62 81 93 100 103 104 100
70 70 74 77 80 81 81 84 87 87 89 88 84 81 78 70 70 72 68 60 62 66 66 72 81 87 80 72 66 70 71 73 90 87 81 92 78 81 75 85 96 101 101
69 72 76 78 80 79 80 84 85 83 82 79 76 73 72 70 64 57 60 62 60 59 58 61 69 84 88 90 83 87 87 82 80 83 84 95 84 94 79 79 82 83 96
68 72 75 78 79 78 78 79 78 77 76 77 73 66 62 66 58 52 57 65 69 71 69 65 68 69 68 68 68 76 87 78 88 92 81 89 101 92 89 86 82 83 89
69 72 75 75 75 76 74 73 69 67 70 72 68 69 70 57 55 56 62 68 75 76 73 68 65 66 66 71 66 71 77 84 93 88 77 82 89 85 80 94 90 84 83
Wind_Direction_850mb
267 266 278 281 282 283 287 295 300 299 291 285 277 273 272 272 272 273 275 279 285 291 296 303 308 308 308 306 300 297 292 289 294 289 284 272 253 246 243 246 239 236 232
263 270 270 271 288 286 286 293 296 295 293 290 283 278 276 277 277 278 278 279 280 285 290 294 301 308 312 312 311 306 293 292 296 303 305 288 260 248 241 239 239 234 233
271 271 269 276 284 284 285 290 294 294 295 297 294 286 278 274 273 274 276 278 280 281 284 288 293 296 301 304 308 275 278 280 302 303 303 290 263 248 239 250 248 250 243
262 265 274 281 281 283 285 285 287 293 288 294 299 298 292 284 278 274 270 272 274 276 280 283 287 290 292 292 286 265 264 271 280 296 302 288 262 255 252 262 262 254 244
262 268 280 277 278 277 280 282 281 273 275 281 290 294 295 290 285 281 277 272 269 269 270 272 276 279 284 288 282 260 258 277 279 275 295 279 256 258 259 270 274 266 256
288 282 276 280 285 294 291 281 283 272 269 281 284 284 291 293 289 285 282 280 278 275 272 268 268 272 275 277 277 268 252 260 275 275 291 283 264 259 267 268 269 268 260
309 313 311 294 294 307 304 316 302 306 308 305 303 298 284 284 291 290 286 282 278 277 275 274 272 271 270 272 274 267 252 264 265 269 278 280 274 273 271 259 265 266 263
305 288 293 308 314 312 307 303 310 307 306 304 307 311 312 295 303 301 300 293 291 284 273 270 271 272 272 271 269 267 263 258 253 271 270 274 274 274 268 265 261 257 259
8 353 331 302 294 298 302 308 309 312 311 305 305 306 316 296 300 287 277 283 291 296 307 296 282 275 273 272 270 268 266 262 251 242 263 265 270 277 276 276 268 260 253
36 29 15 359 340 324 309 302 300 303 308 308 300 296 293 297 304 305 292 286 283 285 283 288 290 290 289 279 274 271 268 265 259 250 247 253 262 275 279 279 273 264 256
31 32 31 30 27 23 9 345 328 316 305 296 302 303 297 296 296 297 302 299 290 281 279 279 279 278 279 280 279 281 276 271 265 259 252 248 257 266 272 276 276 268 260
22 20 16 13 13 10 8 5 3 356 349 323 305 300 301 302 297 296 297 298 298 294 287 283 282 279 276 274 273 274 278 278 269 264 257 250 252 261 266 270 272 268 260
14 14 10 6 3 3 360 355 351 349 346 342 339 329 315 304 297 291 290 293 296 295 293 289 284 284 283 278 271 269 270 275 274 266 260 255 253 258 262 264 265 266 258
6 5 2 359 354 349 345 342 338 335 333 329 325 321 317 315 311 308 298 296 296 294 296 296 295 290 285 282 279 271 263 268 274 272 265 259 255 256 259 259 261 262 258
344 343 341 341 340 339 337 332 329 326 322 319 316 313 311 310 305 303 301 300 297 295 300 300 296 298 295 289 284 280 274 267 266 270 266 262 260 259 260 259 259 259 257
335 332 331 330 331 331 329 327 325 322 318 315 312 308 305 303 299 297 295 293 289 287 284 293 297 298 296 290 285 279 275 273 268 264 268 263 261 261 261 261 259 258 255
333 331 331 331 330 328 325 323 320 318 314 312 311 308 304 301 297 294 291 288 285 283 283 287 289 293 293 295 294 287 278 271 268 267 263 265 265 261 261 261 257 256 254
326 326 326 327 327 326 324 322 319 317 315 314 311 308 307 306 301 296 292 288 286 283 282 285 284 286 287 289 292 289 287 280 270 264 264 261 260 264 263 261 259 255 253
320 321 323 324 323 323 322 320 319 318 316 314 311 308 306 303 301 301 298 293 288 286 284 284 284 282 282 283 285 286 286 282 280 274 264 259 258 257 260 261 259 255 252
315 317 319 320 320 320 320 319 318 316 314 312 310 307 303 299 297 295 295 296 293 290 286 285 285 285 283 281 281 283 284 285 283 277 271 265 259 256 256 257 260 259 254
312 315 317 317 319 320 320 318 316 314 313 310 308 305 303 300 294 289 286 285 287 288 288 286 283 284 283 284 281 284 281 284 284 281 275 263 259 256 252 253 255 256 255
311 314 316 317 319 319 319 318 316 315 312 309 308 308 307 306 303 296 287 279 275 278 280 282 282 279 279 276 279 282 282 282 284 283 287 277 267 262 258 253 252 254 257
312 313 315 317 318 319 319 318 317 314 311 311 311 310 307 304 303 301 298 291 282 273 270 273 273 272 275 274 275 274 274 276 275 274 278 278 272 266 263 260 254 252 253
309 313 316 318 317 319 320 319 317 314 311 312 314 311 309 311 311 304 302 301 298 298 294 288 280 277 276 278 276 269 270 265 270 272 268 268 268 271 266 262 259 257 252
309 313 316 317 317 321 322 320 318 315 313 315 316 317 318 314 310 302 299 296 294 291 290 283 277 276 277 275 272 275 272 271 272 266 258 259 262 265 268 268 260 256 252
309 312 315 316 319 321 322 320 318 315 315 317 323 322 319 306 302 298 294 293 293 295 299 301 298 296 296 291 288 273 267 271 268 272 259 252 256 257 262 265 264 258 253